Bournemouth, United Kingdom

6:45 AM BST on May 28, 2017 (GMT +0100)
Bournemouth

Weather History for EGHH - October, 2012

Change the Weather History Date:

Wednesday, October 31, 2012

  Actual Average Record
Temperature  
Mean Temperature 46 °F -  
Max Temperature 55 °F 51 °F 67 °F (2014)
Min Temperature 38 °F 38 °F 26 °F (1997)
Degree Days  
Heating Degree Days 18    
Moisture  
Dew Point 46 °F    
Average Humidity 85    
Maximum Humidity 100    
Minimum Humidity 67    
Precipitation  
Precipitation 0.04 in 0.11 in - ()
Sea Level Pressure  
Sea Level Pressure 29.15 in    
Wind  
Wind Speed 11 mph ()    
Max Wind Speed 25 mph    
Max Gust Speed 40 mph    
Visibility 6.1 miles    
Events Rain , Thunderstorm    
Averages and records for this station are not official NWS values.
T = Trace of Precipitation, MM = Missing Value Source: Averaged Metar Reports

Daily Weather History Graph

Daily Weather History Graph

Search for Another Location

Airport or City:

Trip Planner

Search our weather history database for the weather conditions in past years. The results will help you decide how hot, cold, wet, or windy it might be!

Date:

Astronomy

Oct. 31, 2012 Rise Set
Actual Time 6:57 AM GMT 4:43 PM GMT
Civil Twilight 6:23 AM GMT 5:17 PM GMT
Nautical Twilight 5:44 AM GMT 5:56 PM GMT
Astronomical Twilight 5:06 AM GMT 6:34 PM GMT
Moon 5:31 PM GMT (10/31) 8:37 AM GMT (10/31)
Length of Visible Light 10h 54m
Length of Day
9h 45m
Full, 97% of the Moon is Illuminated
Oct 31
Full
Nov 7
Last Quarter
Nov 13
New
Nov 20
First Quarter
Nov 28
Full

Hourly Weather History & Observations

Time (GMT) Temp. Windchill Dew Point Humidity Pressure Visibility Wind Dir Wind Speed Gust Speed Precip Events Conditions
12:20 AM 41.0 °F - 39.2 °F 93% 29.47 in - SW 2.3 mph - N/A   Clear
12:50 AM 39.2 °F - 37.4 °F 93% 29.47 in - SW 2.3 mph - N/A   Clear
1:50 AM 42.8 °F - 39.2 °F 87% 29.44 in - South 2.3 mph - N/A   Clear
2:50 AM 38 °F - 36 °F 91% 29.43 in 7 mi SE 1.2 mph - -   Scattered Clouds
2:50 AM 39.2 °F - 37.4 °F 93% 29.42 in - South 2.3 mph - N/A   Clear
5:20 AM 48.2 °F - 44.6 °F 87% 29.36 in 6.2 mi WSW 6.9 mph - N/A Rain Light Rain
5:50 AM 47 °F - 45 °F 92% 29.35 in 3 mi West 6.9 mph - - Rain Rain Showers
5:50 AM 46.4 °F 42.9 °F 44.6 °F 93% 29.33 in 5.0 mi West 6.9 mph - N/A Rain Rain
6:20 AM 46.4 °F 42.9 °F 46.4 °F 100% 29.33 in 3.7 mi West 6.9 mph - N/A Rain Rain
6:50 AM 46.4 °F 44.3 °F 46.4 °F 100% 29.30 in 6.2 mi South 4.6 mph - N/A Rain Rain
7:20 AM 46.4 °F 45.2 °F 44.6 °F 93% 29.30 in 6.2 mi SSW 3.5 mph - N/A   Scattered Clouds
7:50 AM 48.2 °F - 44.6 °F 87% 29.30 in 6.2 mi SSW 4.6 mph - N/A   Partly Cloudy
8:20 AM 50.0 °F - 44.6 °F 82% 29.27 in 6.2 mi SSW 11.5 mph - N/A   Scattered Clouds
8:50 AM 52 °F - 47 °F 78% 29.28 in 12 mi SSW 12.7 mph - -   Scattered Clouds
9:20 AM 53.6 °F - 44.6 °F 72% 29.27 in 6.2 mi SW 12.7 mph - N/A   Scattered Clouds
9:50 AM 53.6 °F - 44.6 °F 72% 29.27 in 6.2 mi SW 17.3 mph - N/A Rain Light Rain Showers
10:20 AM 53.6 °F - 48.2 °F 82% 29.24 in 6.2 mi SW 12.7 mph - N/A Rain Light Rain Showers
10:50 AM 53.6 °F - 46.4 °F 77% 29.24 in 6.2 mi SSW 20.7 mph 32.2 mph N/A Rain Light Rain Showers
11:20 AM 53.6 °F - 48.2 °F 82% 29.21 in 6.2 mi SSW 19.6 mph 33.4 mph N/A Rain Light Rain Showers
11:50 AM 54 °F - 46 °F 67% 29.21 in 9 mi SSW 23.0 mph - - Rain Rain
11:50 AM 53.6 °F - 46.4 °F 77% 29.21 in 6.2 mi SSW 21.9 mph 33.4 mph N/A   Mostly Cloudy
12:20 PM 51.8 °F - 48.2 °F 88% 29.18 in 2.5 mi SSW 23.0 mph 39.1 mph N/A Rain Rain Showers
12:50 PM 53.6 °F - 48.2 °F 82% 29.18 in 6.2 mi SSW 23.0 mph 35.7 mph N/A   Mostly Cloudy
1:20 PM 55.4 °F - 48.2 °F 77% 29.15 in 6.2 mi SSW 24.2 mph 35.7 mph N/A   Scattered Clouds
1:50 PM 53.6 °F - 48.2 °F 82% 29.12 in 6.2 mi SSW 23.0 mph - N/A   Scattered Clouds
2:20 PM 55.4 °F - 48.2 °F 77% 29.12 in 6.2 mi SSW 24.2 mph 38.0 mph N/A   Scattered Clouds
2:50 PM 54 °F - 47 °F 68% 29.11 in 6 mi SSW 24.2 mph - -   Partly Cloudy
2:50 PM 55.4 °F - 46.4 °F 72% 29.09 in 6.2 mi SSW 24.2 mph 35.7 mph N/A   Mostly Cloudy
3:20 PM 53.6 °F - 48.2 °F 82% 29.09 in 6.2 mi SSW 25.3 mph 40.3 mph N/A Rain Rain Showers
3:50 PM 53.6 °F - 46.4 °F 77% 29.06 in 6.2 mi SSW 24.2 mph - N/A Rain Light Rain Showers
4:20 PM 51.8 °F - 48.2 °F 88% 29.06 in 5.0 mi SSW 21.9 mph - N/A Rain Light Rain Showers
4:50 PM 51.8 °F - 48.2 °F 88% 29.06 in 6.2 mi SSW 20.7 mph - N/A Rain Light Rain Showers
5:20 PM 53.6 °F - 48.2 °F 82% 29.03 in 6.2 mi SSW 21.9 mph - N/A Rain Light Rain Showers
5:50 PM 53 °F - 49 °F 84% 29.04 in 10 mi SSW 23.0 mph - - Rain Rain
5:50 PM 53.6 °F - 50.0 °F 88% 29.03 in 6.2 mi SSW 24.2 mph 35.7 mph N/A Rain Light Rain Showers
6:20 PM 55.4 °F - 48.2 °F 77% 29.00 in 6.2 mi SSW 20.7 mph 33.4 mph N/A   Mostly Cloudy
6:50 PM 55.4 °F - 46.4 °F 72% 29.00 in 6.2 mi SSW 24.2 mph 35.7 mph N/A   Scattered Clouds
7:20 PM 53.6 °F - 48.2 °F 82% 28.97 in 6.2 mi SSW 23.0 mph 34.5 mph N/A   Scattered Clouds
7:50 PM 55.4 °F - 48.2 °F 77% 28.97 in 6.2 mi SSW 21.9 mph 34.5 mph N/A   Scattered Clouds
8:20 PM 50.0 °F - 46.4 °F 87% 28.94 in 1.9 mi SW 21.9 mph 34.5 mph N/A Rain , Thunderstorm Heavy Rain Showers
8:50 PM 50 °F - 48 °F 90% 28.95 in 6 mi SW 16.1 mph - - Rain Rain Showers
8:50 PM 50.0 °F - 48.2 °F 94% 28.94 in 5.0 mi SW 17.3 mph 28.8 mph N/A Rain Light Rain Showers
9:20 PM 50.0 °F - 48.2 °F 94% 28.91 in 2.5 mi SW 15.0 mph 26.5 mph N/A Rain Rain Showers
9:50 PM 50.0 °F - 48.2 °F 94% 28.91 in 3.7 mi SW 11.5 mph - N/A Rain Rain Showers
10:20 PM 50.0 °F - 48.2 °F 94% 28.88 in 6.2 mi SW 11.5 mph - N/A Rain Rain
10:50 PM 50.0 °F - 46.4 °F 87% 28.88 in 6.2 mi SW 11.5 mph - N/A Rain Rain
11:20 PM 48.2 °F - 46.4 °F 93% 28.88 in 5.0 mi West 12.7 mph - N/A Rain Rain
11:50 PM 46 °F - 44 °F 91% 28.89 in 13 mi WNW 9.2 mph - - Rain Light Rain